User: anonymous   Login
Location: Unspecified
(0.0000°N, 0.0000°E)
Time: 16:08:03
(UTC+01:00)
Language:

Cosmos 1943 Rocket - Orbit

View from above orbital plane
View from above orbital plane
View from above satellite
View from above satellite

Ground track
Ground track

The orbit data is extracted from the following two-line orbital elements,

1 19120U 88039B   15060.02208456 -.00000044  00000-0  16817-5 0  9997
2 19120 071.0151 297.9366 0020633 029.4726 330.7557 14.19086673387335
Epoch (UTC): 01 March 2015 00:31:48
Eccentricity: 0.0020633
inclination: 71.0151°
perigee height: 813 km
apogee height: 843 km
right ascension of ascending node: 297.9366°
argument of perigee: 29.4726°
revolutions per day: 14.19086673
mean anomaly at epoch: 330.7557°
orbit number at epoch: 38733

The dashed part of the orbit path shows where the satellite is in the earth's shadow,  

DLR